[Iaude] MPEC V44: 2023 VA1 [a=2.24,e=0.64,i=1.8,H=25.1]
    mpec at marsden.cfa.harvard.edu 
    mpec at marsden.cfa.harvard.edu
       
    Sun Nov  5 08:17:10 EST 2023
    
    
  
M.P.E.C. 2023-V44                              Issued 2023 November 5, 13:15 UT
     The Minor Planet Electronic Circulars contain information on unusual
         minor planets, routine data on comets and natural satellites,
         and occasional editorial announcements.  They are published
    on behalf of Division F of the International Astronomical Union by the
          Minor Planet Center, Smithsonian Astrophysical Observatory,
                          Cambridge, MA 02138, U.S.A.
			  
             Prepared using the Tamkin Foundation Computer Network
                              MPC at CFA.HARVARD.EDU
            URL https://www.minorplanetcenter.net/    ISSN 1523-6714
                                    2023 VA1                                    
Observations:
     K23V01A* C2023 11 03.40877302 55 25.490-04 32 13.22         19.71wXEV044F51
     K23V01A  C2023 11 03.42108902 55 26.686-04 30 18.48         20.44wXEV044F51
     K23V01A  C2023 11 03.43340202 55 27.867-04 28 24.87         20.39wXEV044F51
     K23V01A  C2023 11 03.49948902 55 34.222-04 18 17.16         19.91GVEV044F51
     K23V01A  C2023 11 03.50030202 55 34.302-04 18 09.34         20.15GVEV044F51
     K23V01A KC2023 11 04.04911302 56 49.40 -03 01 09.8          19.9 GVEV044L01
     K23V01A KC2023 11 04.05170802 56 49.66 -03 00 49.6          19.8 GVEV044L01
     K23V01A KC2023 11 04.05429602 56 49.93 -03 00 28.7          19.8 GVEV044L01
     K23V01A IC2023 11 04.05698202 56 50.15 -03 00 07.8          20.0 GVEV044L01
     K23V01A IC2023 11 04.06011202 56 50.52 -02 59 42.5          19.9 GVEV044L01
     K23V01A mC2023 11 04.28071002 57 22.180-02 31 03.32         20.25GVEV044I52
     K23V01A mC2023 11 04.28401902 57 22.421-02 30 38.81         20.43GVEV044I52
     K23V01A mC2023 11 04.29540802 57 23.281-02 29 13.56         20.33GVEV044I52
     K23V01A mC2023 11 04.29570402 57 23.299-02 29 11.69         19.99GVEV044I52
     K23V01A  C2023 11 04.46092002 57 40.725-02 08 38.57         20.23GVEV044F52
     K23V01A  C2023 11 04.46156002 57 40.771-02 08 34.58         19.97GVEV044F52
     K23V01A KC2023 11 05.22673502 59 03.86 -00 44 50.0          20.0 GXEV044858
     K23V01A KC2023 11 05.23356002 59 04.26 -00 44 09.0          20.5 GXEV044858
     K23V01A KC2023 11 05.23828502 59 02.68 -00 43 47.3          20.4 GVEV044H21
     K23V01A KC2023 11 05.24044602 59 04.67 -00 43 27.1          20.3 GXEV044858
     K23V01A KC2023 11 05.24114602 59 02.85 -00 43 30.0          20.6 GVEV044H21
     K23V01A KC2023 11 05.24400802 59 03.01 -00 43 12.7          20.5 GVEV044H21
     K23V01A KC2023 11 05.24782402 59 03.24 -00 42 49.7          20.5 GVEV044H21
Observer details:
858 Tebbutt Observatory, Edgewood.  Observer F. B. Zoltowski.  0.51-m f/8.1
    Schmidt-Cassegrain + CCD.
F51 Pan-STARRS 1, Haleakala.  Observers J. Bulger, T. Lowe, P. Minguez, A.
    Schultz, I. Smith.  Measurers K. Chambers, T. de Boer, J. Fairlamb, H.
    Gao, M. Huber, C.-C. Lin, E. Magnier, Y. Ramanjooloo, R. Wainscoat, R.
    Weryk.  1.8-m Ritchey-Chretien + CCD.
F52 Pan-STARRS 2, Haleakala.  Observers J. Bulger, T. Lowe, P. Minguez, A.
    Schultz, I. Smith.  Measurers K. Chambers, T. de Boer, J. Fairlamb, H.
    Gao, M. Huber, C.-C. Lin, E. Magnier, Y. Ramanjooloo, R. Wainscoat, R.
    Weryk.  1.8-m Ritchey-Chretien + CCD.
H21 Astronomical Research Observatory, Westfield.  Observer R. Holmes.
    Measurers T. Linder, R. Holmes, L. Horn.  0.81-m f/4.0 astrograph + CCD.
I52 Steward Observatory, Mt. Lemmon Station.  Observer D. Rankin.  Measurers
    E. C. Beshore, D. Fay, J. B. Fazekas, D. C. Fuls, A. R. Gibbs, A. D.
    Grauer, H. Groeller, J. K. Hogan, R. A. Kowalski, S. M. Larson, G. J.
    Leonard, D. Rankin, R. L. Seaman, F. C. Shelly, K. W. Wierzchos.  1.0-m
    prime focus + CCD.
L01 Visnjan Observatory, Tican.  Observer K. Korlevic.  1.0-m f/2.9 reflector
    + CCD.
Orbital elements:
2023 VA1                                                 Earth MOID = 0.0179 AU
Epoch 2023 Sept. 13.0 TT = JDT 2460200.5                Veres                   
M 358.37126              (2000.0)            P               Q                  
n   0.29407725     Peri.  157.12378     +0.90193201     +0.43187555             
a   2.2395552      Node   177.28824     -0.40088974     +0.83847732             
e   0.6386169      Incl.    1.78044     -0.16064269     +0.33232406             
P   3.35           H   25.10          G   0.15           U   8                  
Residuals in seconds of arc
231103 F51  0.0   0.0     231104 L01  0.2-  0.0     231105 858  0.2-  0.4+
231103 F51  0.1+  0.2+    231104 L01  0.8+  0.5+    231105 858  0.3-  0.1+
231103 F51  0.0   0.4-    231104 I52  0.1+  0.2+    231105 H21  0.0   0.0
231103 F51  0.0   0.2-    231104 I52  0.0   0.1-    231105 858  0.2-  0.4+
231103 F51  0.0   0.2+    231104 I52  0.0   0.0     231105 H21  0.1+  0.0
231104 L01  0.3-  0.4+    231104 I52  0.1-  0.4-    231105 H21  0.1-  0.0
231104 L01  0.1-  0.0     231104 F52  0.1-  0.3+    231105 H21  0.0   0.0
231104 L01  0.3+  0.4+    231104 F52  0.0   0.3-
Ephemeris:
2023 VA1                 a,e,i = 2.24, 0.64, 2                   q = 0.8093
Date    TT    R. A. (2000) Decl.     Delta      r    Elong.  Phase     V
2023 10 06    15 12 30.3 -18 44 51   0.2020  0.8516    38.6   132.8    27.3
...
2023 10 21    15 35 40.3 -31 57 28   0.06390 0.9436    34.3   143.6    26.4
...
2023 10 29    02 02 51.1 -44 40 42   0.02392 1.0064   122.1    56.7    19.1
...
2023 11 04    02 56 46.0 -03 06 15   0.06918 1.0576   160.9    17.8    20.4
2023 11 05    02 58 39.2 -01 07 17   0.07794 1.0664   162.7    16.1    20.6
2023 11 06    03 00 08.2 +00 28 09   0.08682 1.0752   164.1    14.6    20.8
...
2023 11 12    03 04 53.3 +05 52 46   0.1420  1.1295   168.4    10.1    21.8
...
2023 11 20    03 07 32.8 +09 01 25   0.2203  1.2040   167.0    10.6    22.9
...
2023 12 05    03 12 09.2 +11 54 27   0.3852  1.3466   156.0    17.3    24.6
M. P. C. Staff               (C) Copyright 2023 MPC           M.P.E.C. 2023-V44
    
    
More information about the Iaude
mailing list